Lid_Strength_Index
-1 -1 -1 -1 -1 -1 -1 -1 -1 -1 -1 -1 -0 -0 -0 0 0 2 3 3 5 8 8 7 7 9 9 9 12 10 11 11 11 12 13 13 13 12 13 12 13 12 14 15 14 17 18 7 8 11 8 6 6 6
-1 -1 -1 -1 -1 -1 -1 -1 -1 -1 -1 -1 -1 -1 -0 0 0 2 4 3 3 7 8 6 5 5 5 6 8 8 10 11 10 11 11 11 13 13 12 15 9 13 11 12 12 12 8 8 7 6 5 6 6 6
-1 -1 -1 -1 -1 -1 -1 -1 -1 -0 -0 -1 -1 -1 -0 0 1 1 3 3 4 7 8 7 8 4 4 4 3 9 8 7 8 7 9 10 14 11 14 12 11 8 8 11 11 9 8 8 7 6 6 6 5 5
-1 -1 -1 -1 -1 -1 -1 -1 -1 -1 -1 -1 -1 -1 -1 -0 -0 0 3 3 4 6 10 9 4 5 3 3 4 5 6 5 6 6 10 11 13 9 12 10 11 10 9 10 10 8 8 7 6 6 6 5 5 6
-0 -1 -1 -1 -1 -1 -1 -1 -1 -1 -1 -1 -1 -1 -0 -0 -0 1 2 2 2 5 10 10 5 4 3 4 5 5 7 7 8 9 10 12 10 10 10 11 14 10 11 12 12 7 8 7 6 5 5 5 5 5
-0 -1 -1 -1 -1 -0 -0 -0 -0 -0 -0 0 0 0 0 0 0 2 6 3 2 3 8 12 6 6 5 4 5 6 6 7 8 9 10 9 7 8 12 12 9 7 7 7 8 7 7 6 5 4 5 5 4 5
-1 -1 -1 -1 -1 -1 -1 -0 -0 0 0 0 1 0 0 0 2 6 6 3 1 2 8 10 10 6 5 6 7 8 7 8 8 9 9 9 8 9 12 14 9 7 7 7 7 7 7 6 6 5 4 5 5 6
-0 -1 -1 -1 -1 -0 -0 -0 0 0 1 1 0 1 1 0 1 4 2 1 1 6 7 11 10 9 6 8 9 8 9 9 8 9 8 10 9 9 13 10 8 8 7 7 7 6 6 6 5 6 6 6 7 8
-1 -0 -0 -0 -0 0 0 1 1 1 1 1 1 1 1 4 6 4 1 1 2 5 9 10 12 13 7 8 8 8 7 11 8 11 10 9 11 12 10 9 8 8 8 8 7 7 6 6 6 6 6 7 7 8
-1 -0 -1 -1 -1 -1 -1 0 1 1 1 1 1 4 7 5 1 1 4 6 7 6 8 10 9 12 9 10 10 10 9 11 13 10 9 11 11 9 8 8 8 8 7 6 7 7 7 7 6 7 7 6 6 7
-1 -1 -1 -0 -0 -0 -0 0 1 1 1 4 6 7 4 2 5 7 10 10 9 11 9 9 10 11 8 12 11 10 11 11 14 12 12 13 13 10 8 8 7 6 7 7 6 5 5 5 6 6 7 7 7 8
-0 -0 0 1 1 1 1 1 1 2 3 3 3 3 5 7 10 11 13 11 11 11 9 10 10 9 8 7 10 10 12 12 15 11 12 14 11 9 8 8 8 8 7 7 5 5 5 6 6 7 7 8 9 9
-0 0 1 1 1 2 2 2 1 1 1 4 5 7 9 11 17 16 18 13 13 10 9 9 10 8 8 7 10 11 14 14 10 13 14 12 10 8 8 8 8 8 7 6 7 7 7 8 8 9 10 11 11 11
0 1 1 1 2 2 2 1 1 1 3 8 10 15 14 17 13 13 11 12 10 8 8 7 8 9 9 11 11 14 12 11 13 14 14 10 9 9 8 8 8 9 10 9 9 10 12 13 14 14 13 12 12 12
0 1 1 1 2 2 1 1 1 2 4 8 8 14 12 11 11 10 9 8 8 7 8 8 8 9 10 12 11 12 13 14 13 13 11 10 9 9 9 9 10 11 11 12 12 14 15 15 14 14 14 13 13 13
2 2 3 2 1 1 1 1 2 3 5 7 9 10 10 10 11 11 11 10 7 7 7 7 9 11 11 11 13 13 15 15 13 11 10 9 9 9 9 9 10 10 11 13 14 14 14 15 14 15 14 15 16 14
2 3 1 1 2 1 1 2 4 6 8 9 10 9 9 10 10 10 11 8 6 8 10 9 12 12 10 13 13 11 13 12 13 10 9 9 9 8 9 10 12 12 13 13 14 14 14 14 14 12 12 12 12 12
3 1 1 0 1 2 2 3 6 7 9 8 9 10 9 9 10 9 9 7 8 8 8 10 10 12 14 14 13 11 12 13 10 9 9 9 9 9 9 10 11 11 12 12 11 11 11 11 11 12 11 12 13 13
3 2 1 1 1 3 5 5 5 9 8 8 9 10 9 9 9 8 8 8 7 7 8 8 11 12 12 11 11 12 13 11 10 10 9 10 9 11 11 10 10 10 11 10 10 11 10 9 10 10 11 11 12 13
1 1 1 0 1 5 6 6 4 8 9 9 10 10 9 9 9 9 8 7 7 8 9 10 11 10 11 10 9 9 10 10 9 10 10 9 9 10 10 10 10 10 9 9 10 10 10 10 10 10 10 11 12 13
3 3 1 1 3 4 6 7 7 8 9 10 10 9 10 9 9 10 9 7 8 8 10 9 10 11 10 9 9 9 9 8 9 9 10 10 9 9 9 9 9 9 10 10 10 10 10 10 10 10 10 10 12 12
5 1 3 2 5 5 6 7 8 8 9 9 9 9 11 13 12 10 8 9 10 9 9 9 9 8 8 8 8 8 8 8 9 10 10 9 10 10 10 10 10 10 10 10 10 10 9 9 9 9 10 11 13 13
3 5 6 5 9 10 10 7 9 8 11 11 10 11 12 12 11 8 11 10 10 10 10 9 8 7 8 8 8 8 7 8 9 9 9 9 9 9 9 9 9 9 10 10 9 9 9 9 9 9 10 11 12 13
4 7 9 10 10 16 11 13 8 8 10 10 11 13 12 12 10 12 12 10 10 11 10 10 9 9 9 8 8 8 8 8 8 9 9 9 10 10 9 9 9 8 8 8 8 9 9 8 9 9 9 10 11 12
11 13 13 18 13 11 11 12 13 9 14 12 12 14 13 10 13 14 13 12 11 11 11 10 9 8 8 8 8 8 7 7 8 9 8 8 9 9 9 9 9 8 8 8 9 9 8 8 9 9 9 10 11 12
16 15 16 16 17 12 12 15 14 12 13 16 15 13 12 12 16 16 12 12 11 11 11 9 8 8 8 8 8 8 8 7 7 8 8 8 8 9 9 10 10 9 8 7 8 8 9 8 9 9 10 10 12 12
16 15 12 10 11 10 13 13 11 15 17 16 15 15 14 15 16 13 11 10 9 9 9 9 8 8 8 8 8 8 8 8 8 9 8 7 7 7 8 9 10 9 9 8 8 8 8 9 9 9 9 9 10 11
12 12 15 13 12 11 16 17 16 17 14 12 13 17 17 16 14 11 10 9 9 8 8 8 8 8 9 9 9 10 10 10 10 10 10 9 10 10 9 9 9 10 9 8 8 8 8 8 9 9 9 10 11 10
11 10 11 15 15 13 13 12 12 11 10 12 14 16 14 11 10 10 9 9 8 9 9 10 10 8 8 9 9 10 9 9 9 11 12 10 10 10 10 10 9 10 9 9 10 8 8 8 8 8 8 9 10 11
11 10 12 17 15 14 13 11 12 11 9 10 10 10 11 11 11 11 11 11 11 10 11 12 12 9 9 9 8 8 8 8 9 8 10 10 9 10 10 10 10 9 9 9 9 9 10 10 11 11 12 12 12 13
10 10 11 12 13 12 12 13 12 11 13 15 14 13 12 14 12 13 11 11 11 12 11 12 13 11 10 10 8 8 9 7 7 8 8 8 9 10 10 11 9 9 9 9 9 9 10 11 11 12 12 13 13 13
11 12 12 12 12 11 12 11 14 15 15 13 13 14 13 13 14 13 11 8 8 9 8 8 9 10 12 10 8 6 6 6 7 8 9 8 7 8 9 10 10 9 9 9 10 10 10 11 12 12 13 13 14 13
12 10 11 12 13 13 14 14 15 15 17 17 16 15 13 13 16 14 13 9 9 11 10 8 7 6 7 7 9 7 8 6 7 8 10 10 11 11 10 9 9 9 9 9 9 10 11 11 12 13 14 14 14 14